Regional Weather Roundup
Issued by NWS Raleigh/Durham, NC

Home | Current Version | Previous Version | Text Only | Print | Product List | Glossary On
Versions: 1 2 3 4 5 6 7 8 9 10 11 12 13 14 15 16 17 18 19 20 21 22 23 24 25 26 27 28 29 30 31 32 33 34 35 36 37 38 39 40 41 42 43 44 45 46 47 48 49 50
000
ASUS42 KRAH 202010
RWRRAH
NORTH CAROLINA WEATHER ROUNDUP
NATIONAL WEATHER SERVICE RALEIGH NC
300 PM EST FRI JAN 20 2017

NOTE: "FAIR" INDICATES FEW OR NO CLOUDS BELOW 12,000 FEET WITH NO
SIGNIFICANT WEATHER AND/OR OBSTRUCTIONS TO VISIBILITY.

NCZ001-053-055-056-065-067-202100-
WESTERN NORTH CAROLINA

CITY           SKY/WX    TMP DP  RH WIND       PRES   REMARKS
ASHEVILLE      MOSUNNY   67  47  48 NW3       29.81S
JEFFERSON      MOSUNNY   58  44  60 W8        29.83S
MORGANTON      CLOUDY    54  52  92 CALM      29.88R
HICKORY        CLOUDY    55  52  89 NW3       29.83S
RUTHERFORDTON  CLOUDY    57  56  94 CALM      29.84S
MOUNT AIRY     NOT AVBL
BOONE          SUNNY     58  46  62 NW9       29.83S
$$

NCZ021-022-025-041-071-084-088-202100-
CENTRAL NORTH CAROLINA

CITY           SKY/WX    TMP DP  RH WIND       PRES   REMARKS
CHARLOTTE      PTSUNNY   61  55  81 NW3       29.84S
GREENSBORO     CLOUDY    54  53  97 SW3       29.83F
WINSTON-SALEM  CLOUDY    54  49  83 CALM      29.84F
RALEIGH-DURHAM CLOUDY    57  53  86 CALM      29.85F
FORT BRAGG     CLOUDY    70  57  64 W5        29.81F
FAYETTEVILLE   MOSUNNY   72  58  61 SW10      29.81F
BURLINGTON     CLOUDY    55  53  93 S6        29.83F
LAURINBURG     CLOUDY    70  58  65 W9        29.83F
$$

NCZ011-015-027-028-043-044-047-080-103-202100-
NORTHEASTERN NORTH CAROLINA

CITY           SKY/WX    TMP DP  RH WIND       PRES   REMARKS
ROCKY MT-WILSO CLOUDY    55  53  93 N5        29.86R
GREENVILLE     CLOUDY    61  54  77 CALM      29.87S
ELIZABETH CITY LGT RAIN  50  48  93 E10       29.86F
MANTEO         CLOUDY    50  50  99 E9        29.87S
CAPE HATTERAS  LGT RAIN  62  57  83 S7        29.84F
$$

NCZ078-087-090-091-093-098-101-202100-
SOUTHEASTERN NORTH CAROLINA

CITY           SKY/WX    TMP DP  RH WIND       PRES   REMARKS
LUMBERTON      CLOUDY    72  59  63 W10       29.82F
GOLDSBORO      PTSUNNY   69  60  73 W3        29.81F
KINSTON        PTSUNNY   68  57  68 SW3       29.84F
KENANSVILLE    NOT AVBL
NEW BERN       CLOUDY    69  57  65 CALM      29.84S
CHERRY POINT   CLOUDY    72  62  71 SW7       29.84R
BEAUFORT       CLOUDY    67  62  84 SW9       29.84R
JACKSONVILLE   CLOUDY    72  61  68 SW9       29.82F
WILMINGTON     MOSUNNY   74  61  63 SW13      29.83S
$$




USA.gov is the U.S. government's official web portal to all federal, state and local government web resources and services.